Location: London
(51.5166°N, 0.1046°W)
Time: 13:06:11
(UTC+00:00)

ISS - Visible Passes

Search period start: 21 February 2018 00:00
Search period end: 03 March 2018 00:00
Orbit: 402 x 407 km, 51.6° (Epoch: 21 February)

Date Brightness Start Highest point End Pass type
(mag) Time Alt. Az. Time Alt. Az. Time Alt. Az.
27 Feb -1.0 06:07:14 10° S 06:09:30 17° SE 06:11:46 10° E visible
28 Feb -0.8 05:16:25 10° SSE 05:17:26 11° SE 05:18:28 10° ESE visible
01 Mar -2.1 05:58:09 10° SSW 06:01:04 30° SSE 06:03:59 10° E visible
02 Mar -1.6 05:06:35 11° SSW 05:08:54 20° SE 05:11:24 10° E visible
